Terug naar catalogus

COSMOS 2403

GLONASS

LostNavigatieMEO
NORAD 28114·PAYLOAD·🇷🇺 Russia

Gelanceerd Dec 10, 2003 vanaf Baikonur Cosmodrome

Loading…

Volgende Passages (komende 24 uur)

TLE

VerouderdSource: Space-Track

Epoch: Aug 5, 2026, 04:23 UTC

1 28114U 03056C   26217.18308719 -.00000003  00000-0  00000+0 0  9998
2 28114  64.3083  60.5248 0062077  63.7745 297.1527  2.13104513176299

Volg COSMOS 2403 in realtime met AllMySat

Download on the App Store